Hourly Weather Roundup
Issued by NWS Central Illinois

Home | Current Version | Previous Version | Text Only | Print | Product List | Glossary On
Versions: 1 2 3 4 5 6 7 8 9 10 11 12 13 14 15 16 17 18 19 20 21 22 23 24 25 26 27 28 29 30 31 32 33 34 35 36 37 38 39 40 41 42 43 44 45 46 47 48 49 50
000
NZUS43 KILX 240610
HWRILX

Area Weather Roundup
National Weather Service Lincoln IL
100 AM CDT SAT JUN 24 2017

NOTE:  "FAIR" indicates few or no clouds below 12,000 feet, with
       no sigificant weather and/or obstructions to visibility.


CITY           SKY/WX    TMP DP  RH WIND       PRES   REMARKS
Bloomington    CLEAR     65  55  70 NW14      29.94
6HR MIN TEMP:  65; 6HR MAX TEMP:  78;

Champaign      PTCLDY    61  55  81 W6        29.93R
6HR MIN TEMP:  61; 6HR MAX TEMP:  78;

Danville       CLOUDY    63  57  81 W6        29.88F
6HR MIN TEMP:  62; 6HR MAX TEMP:  76;

Decatur        PTCLDY    66  54  65 W7        29.95R
6HR MIN TEMP:  65; 6HR MAX TEMP:  78;

Effingham      PTCLDY    67  59  76 W6        29.96S
6HR MIN TEMP:  67; 6HR MAX TEMP:  80;

Flora          PTCLDY    69  60  72 NW6       29.94S
6HR MIN TEMP:  69; 6HR MAX TEMP:  78;

Galesburg      CLEAR     61  56  81 W6        29.97S
6HR MIN TEMP:  60; 6HR MAX TEMP:  73;

Jacksonville   CLEAR     63  55  74 W5        29.98R
6HR MIN TEMP:  61; 6HR MAX TEMP:  81;

Lacon          CLEAR     65  56  72 W9        29.93S
6HR MIN TEMP:  65; 6HR MAX TEMP:  75;

Lawrenceville  PTCLDY    67  63  87 NW8       29.92R
6HR MIN TEMP:  67; 6HR MAX TEMP:  76;

Litchfield     CLEAR     64  56  76 NW9       29.97S
6HR MIN TEMP:  63; 6HR MAX TEMP:  76;

$$


CITY           SKY/WX    TMP DP  RH WIND       PRES   REMARKS
Lincoln        CLEAR     65  57  75 CALM      29.95R
6HR MIN TEMP:  65; 6HR MAX TEMP:  81;

Macomb         CLEAR     59  56  89 W7        30.00R
6HR MIN TEMP:  59; 6HR MAX TEMP:  75;

Mattoon        PTCLDY    64  58  80 NW10      29.93R
6HR MIN TEMP:  63; 6HR MAX TEMP:  78;

Mt Carmel AP   MOCLDY    67  61  80 NW8       29.92R
6HR MIN TEMP:  65; 6HR MAX TEMP:  75;

Olney-Noble AP CLOUDY    65  65 100 NW5       29.94R
Paris AP       PTCLDY    63  60  90 NW6       29.92S
6HR MIN TEMP:  63; 6HR MAX TEMP:  75;

Peoria         CLEAR     65  55  70 NW6       29.94S
6HR MIN TEMP:  65; 6HR MAX TEMP:  77;

Pontiac        CLEAR     63  60  90 W9        29.93R
6HR MIN TEMP:  63; 6HR MAX TEMP:  78;

Rantoul        PTCLDY    63  59  87 W7        29.92S
6HR MIN TEMP:  63; 6HR MAX TEMP:  79;

Robinson       MOCLDY    65  60  84 NW5       29.93R
6HR MIN TEMP:  64; 6HR MAX TEMP:  75;

Springfield    CLEAR     63  58  83 W6        29.97R
6HR MIN TEMP:  63; 6HR MAX TEMP:  82;

Taylorville    CLEAR     63  56  77 W7        29.97R
6HR MIN TEMP:  63; 6HR MAX TEMP:  77;

$$

...REGIONAL REPORTS...


CITY           SKY/WX    TMP DP  RH WIND       PRES   REMARKS
Chicago O`Hare CLEAR     66  54  65 W9        29.86R
Kankakee       CLEAR     62  57  83 W6        29.90R
Moline         CLEAR     65  55  70 W9        29.96R
Mount Sterling CLEAR     62  55  79 NW8       29.99R
Mount Vernon   CLOUDY    68  60  75 N3        29.95R
Pittsfield     CLEAR     64  57  77 NW5       30.01R
Quincy         CLEAR     63  56  78 W7        30.00R
Rockford       CLEAR     63  56  78 W10       29.90R
$$


CITY           SKY/WX    TMP DP  RH WIND       PRES   REMARKS
Burlington     CLEAR     65  54  67 NW10      29.97S
Cedar Rapids   CLEAR     61  56  83 NW12      29.98R
Des Moines     CLEAR     62  50  64 W5        30.05R
Kirksville     CLEAR     59  54  83 W6        30.06R
Ottumwa        CLEAR     58  54  86 NW7       30.02R
St Louis       PTCLDY    71  55  56 N8        29.99R
$$


CITY           SKY/WX    TMP DP  RH WIND       PRES   REMARKS
Terre Haute    PTCLDY    68  57  68 NW6       29.91S
Evansville     PTCLDY    65  64  97 W3        29.91S FOG
Indianapolis   PTCLDY    64  61  90 W7        29.88R
Lafayette      MOCLDY    64  57  78 W8        29.87S
Madison        CLEAR     61  55  81 W5        29.87R
Milwaukee      CLEAR     66  55  67 W8        29.82R
$$





USA.gov is the U.S. government's official web portal to all federal, state and local government web resources and services.